Location: Newark
(45.2500°N, 7.5833°E)
Time: 15:16:40
(UTC+00:00)

Vanguard 3 - Pass Details

Date: 01 February 2020
Orbit: 508 x 3263 km, 33.3° (Epoch: 17 February)

Event Time Altitude Azimuth Distance (km) Brightness Sun altitude
Rises 20:25:46 0° 277° (W) 7,227 12.8 -40.3°
Reaches altitude 10° 20:31:23 10° 270° (W) 6,186 12.2 -41.2°
Maximum altitude 20:47:11 34° 216° (SW) 3,948 10.5 -43.8°
Enters shadow 20:51:11 30° 192° (SSW) 3,867 10.3 -44.5°
Drops below altitude 10° 20:59:01 10° 158° (SSE) 4,604 - -45.7°
Sets 21:02:30 0° 149° (SSE) 5,240 - -46.3°
